DMSP 5D-2 F13 DEB, 42325

Orbit data source: Space-Track

DMSP 5D-2 F13 DEB, 42325 is space debris in SSO originally from a launch on Fri, 24 Mar 1995 UTC launched from the Air Force Western Test Range (AFWTR). Debris objects in space refer to the collection of defunct objects orbiting the Earth. Examples of debris include non-operational satellites, rocket bodies, and fragments generated from explosions, collisions, or faulty payload assembly.

Loading next visibility...
Identifier
42325, 1995-015JT
Orbit
SSO
Country
Flag of USUS
Related business
Manufacturer
Unknown
Mission
Spacecraft
Bus & Motor
Unknown
Mass
Unknown
Launch date (UTC)
1995-03-24 (31 years ago)
Launch vehicle
Unknown
Launch site
Air Force Western Test Range (AFWTR)
Object type
Payload
Rocket body
Debris
Shape & HBR
Unknown shape, 0.1 m
Radar Cross Section
Small (<0.1 m²)

Expand to show TLE details & history
Last TLE update: 3 days ago

TLE from 3 days ago
0 DMSP 5D-2 F13 DEB
1 42325U 95015JT  25294.55442068  .00010027  00000-0  32072-2 0  9998
2 42325  98.7264 331.7623 0012841 135.9765 224.2447 14.39749122518383
Epoch: 2025-10-21T13:18Z
TLE epoch observation values (Epoch: 2025-10-21T13:18:21.946Z)
Latitude
-0.00005°
Longitude
101.93016°
Altitude
768.841 km
Speed
7.466 km/s
True Right ascension
22h 07m 02s
True Declination
0° 00' 00"
Sunlit
Object was in full shadow at epoch
Visualization orbit readout
Latitude
Unknown
Longitude
Unknown
Altitude
Unknown
Speed
Unknown
Apparent Right ascension
Unknown
Apparent Declination
Unknown
Sunlit
N/A
Visualization observer readout
Local Sidereal Time
16:56:41
Azimuth
Unknown
Elevation
Unknown
Doppler factor
Unknown
Orbital elements
Apogee altitude
765.622 km
Perigee altitude
747.299 km
Semi-major axis
7,134.598 km
Eccentricity
0.00128
Inclination
98.7264°
RAAN
331.7623°
Arg. of periapsis
135.9765°
True anomaly
224.14215°
Mean anomaly
224.2447°
Eccentric anomaly
224.19341°
Mean motion
3.60155 °/min
Orbital period
99.96 mins
BSTAR
0.0032072
Loading maneuver chart data...
Computing Atmospheric mass density...

Documentation

Showing up to 5 results
|